カタログに戻る

STARLINK-37813

運用中通信VLEO
NORAD 100289·PAYLOAD·🇺🇸 United States

打ち上げ Aug 11, 2026 から Cape Canaveral Space Force Station

Loading…

次のパス (今後24時間)

TLE

古いSource: Space-Track

元期: Sep 8, 2026, 10:43 UTC

1 A0289U 26183T   26251.44665774  .00210979  00000-0  13422-2 0  9990
2 A0289  53.1601 316.5692 0001118 118.9474 241.1659 15.75310827  4410

AllMySatでSTARLINK-37813をリアルタイム追跡

Download on the App Store